Starlink 30807

operational
NORAD ID: 58192 Int'l Des: 2023-167 Owner: SPXS Country: US Constellation: starlink
LEOCIRCULAR

About Starlink 30807

Description loading...

Live Position

Loading 3D Globe...

Upcoming Passes

Altitude History

Altitude vs Time

uPlot chart will show altitude changes over time

Two-Line Element Set

1 58192U 23167T 25303.25866268 .00007514 00000-0 57062-3 0 9990
2 58192 43.0042 134.7771 0001291 271.7077 88.3618 15.02540979111339
Epoch: Oct 30, 2025 • Age: 19 hours

Current Status

Altitude 558.3 km
Velocity 7.59 km/s
Sub-Earth Point 13.88°N, 84.42°E
Launch Date Oct 30, 2023
Age 2 years
Type internet

Technical Details

Classification Payload
Mass 730.00 kg
Dry Mass 700.00 kg
Total Mass 730.00 kg
Length 0.30 m
Diameter 4.10 m
Span 29.00 m
Shape Box + pan
Manufacturer SPXS
Bus Type Starlink V2M
Phase Status In Orbit
Owner/State SPXS/US

Large Constellations

Loading constellations...